Regional Weather Roundup
Issued by NWS Wilmington, NC

Home | Current Version | Previous Version | Text Only | Print | Product List | Glossary On
Versions: 1 2 3 4 5 6 7 8 9 10 11 12 13 14 15 16 17 18 19 20 21 22 23 24 25 26 27 28 29 30 31 32 33 34 35 36 37 38 39 40 41 42 43 44 45 46 47 48 49 50
000
ASUS42 KILM 290110
RWRILM
RWRILM
REGIONAL HOURLY WEATHER ROUNDUP
NATIONAL WEATHER SERVICE WILMINGTON NC
800 PM EST SUN DEC 28 2014

NOTE: "FAIR" INDICATES FEW OR NO CLOUDS BELOW 12,000 FEET WITH NO
SIGNIFICANT WEATHER AND/OR OBSTRUCTIONS TO VISIBILITY.

...............WFO WILMINGTON COUNTY WARNING AREA...............

......COASTAL NC AND SC COUNTIES......

CITY           SKY/WX    TMP DP  RH WIND       PRES   REMARKS
WILMINGTON     CLOUDY    64  61  90 SW3       30.06R
SOUTHPORT      CLOUDY    62  60  95 W6        30.07S
N MYRTLE BEACH CLOUDY    63  60  90 CALM      30.06R
MYRTLE BEACH   NOT AVBL

......INLAND NC AND SC COUNTIES.......

CITY           SKY/WX    TMP DP  RH WIND       PRES   REMARKS
LUMBERTON      CLOUDY    63  60  90 W3        30.05S
ELIZABETHTOWN  CLOUDY    64  61  90 CALM      30.06S
WHITEVILLE     CLOUDY    68  62  80 CALM      30.06R
FLORENCE       CLOUDY    66  60  81 W6        30.06R
DARLINGTON     CLOUDY    63  57  82 SW5       30.08R

....................REST OF NORTH CAROLINA......................

.........EASTERN NC.........

CITY           SKY/WX    TMP DP  RH WIND       PRES   REMARKS
CAPE HATTERAS  PTCLDY    56  55  97 W3        30.06R
JACKSONVILLE   CLOUDY    64  57  77 CALM      30.07S
MOREHEAD CITY  CLOUDY    62  60  93 NW9       30.07R
KENANSVILLE    LGT RAIN  60  59  97 CALM      30.07S
NEW BERN       CLOUDY    64  57  78 CALM      30.07R
ELIZABETH CITY CLOUDY    63  58  83 SW7       30.05S

.........CENTRAL NC.........

CITY           SKY/WX    TMP DP  RH WIND       PRES   REMARKS
RALEIGH DURHAM MOCLDY    57  54  89 SW5       30.06R
ROCKY MOUNT    CLOUDY    59  57  93 SW3       30.05S
ROANOKE RAPIDS NOT AVBL
FAYETTEVILLE   CLOUDY    61  59  93 CALM      30.05S
HOFFMAN        CLOUDY    59  59  99 SW3       30.07S

.........WESTERN NC.........

CITY           SKY/WX    TMP DP  RH WIND       PRES   REMARKS
CHARLOTTE      MOCLDY    54  52  93 S3        30.06R
GREENSBORO     MOCLDY    52  51  97 CALM      30.04R FOG
HICKORY        NOT AVBL
BOONE          NOT AVBL
ASHEVILLE      NOT AVBL

.....................REST OF SOUTH CAROLINA.....................

.........EASTERN SC.........

CITY           SKY/WX    TMP DP  RH WIND       PRES   REMARKS
CHARLESTON     MOCLDY    64  62  93 S9        30.07S
BEAUFORT MCAS  MOCLDY    62  60  93 CALM      30.08R
HILTON HEAD    MOCLDY    63  63 100 S3        30.09S

.........CENTRAL SC.........

CITY           SKY/WX    TMP DP  RH WIND       PRES   REMARKS
COLUMBIA       PTCLDY    61  59  93 W5        30.07R
ORANGEBURG     MOCLDY    64  59  83 NW5       30.07R
SUMTER SHAW    CLOUDY    63  60  88 W3        30.06R

.........WESTERN SC.........

CITY           SKY/WX    TMP DP  RH WIND       PRES   REMARKS
GREENVILLE     NOT AVBL
ROCK HILL      CLOUDY    57  56  96 SW6       30.06R
ANDERSON       CLOUDY    56  55  97 S3        30.06R
CLEMSON        NOT AVBL
GREENWOOD      CLOUDY    58  56  93 SW3       30.08S


...................COASTAL AND OFFSHORE REPORTS..................

................LOCAL PIERS AND NC RESERVE................


STATION/POSITION TIME  SKY/WX   TEMP    WIND        PRES    VSBY
                                AIR SEA DIR/SP/G
                 (UTC)          (F)     (DEG/KT/KT) (MB)    (MI)
JOHNY MRCER PIER 0100            62 56  220/  3/  4 1017.0F
NC RESRV MASNBRO 0000            65     230/  4     1017.0S
OCEAN CREST PIER 0100            60 58  250/  6/  7 1017.2
SPRINGMAID  PIER 0100            57 54  200/  7/  7 1017.9R


................COASTAL AND OFFSHORE BUOYS................


STATION/POSITION TIME  SKY/WX   TEMP    WIND        PRES    VSBY
                                AIR SEA DIR/SP/G
                 (UTC)          (F)     (DEG/KT/KT) (MB)    (MI)
DIMNDSHOAL 41025 0100            70                 1017.7R
WVE H/P(F/S)=  4/13

CAPE LOOKOUT     0000            64     220/ 11/ 15 1017.4R
ONSLOW BAY 41036 0000            64 60  220/ 10/ 12 1018.2R
5 WRITEBCH 41038 NOT AVBL
MASONBORO  41110 0100               54                N/A
WVE H/P(F/S)=  2/13 WND WVE H/P(F/S)=  2/ 9 SWL H/P/D(F/S/D)=  2/100/13

WILM HARBR 41108 0100               57                N/A
WVE H/P(F/S)=  2/14 WND WVE H/P(F/S)=  2/ 5 SWL H/P/D(F/S/D)=  2/140/14

27WRITEBCH 41037 0000            60 59  220/  8/ 10 1019.3R
FRYING PAN 41013 0100            69 67  230/  8/ 10 1019.0R
WVE H/P(F/S)=  4/14 WND WVE H/P(F/S)=  2/ 3 SWL H/P/D(F/S/D)=  3/ 90/14

SUNST NRSH 41024 0000            58     270/  4/  6   N/A
CAPRS NRSH 41029 0000            59     150/  8/ 12   N/A
EDISTO     41004 0100            72 73  210/ 14/ 16 1018.2S
WVE H/P(F/S)=  3/13 WND WVE H/P(F/S)=  2/ 3 SWL H/P/D(F/S/D)=  2/13



..........OFFSHORE BUOYS BEYOND 100 NM OFFSHORE...........
.....IN A TRIANGLE---HAT TO BERMUDA TO BAHAMAS TO HAT.....


STATION/POSITION TIME  SKY/WX   TEMP    WIND        PRES    VSBY
                                AIR SEA DIR/SP/G
                 (UTC)          (F)     (DEG/KT/KT) (MB)    (MI)
150E HAT   41001 NOT AVBL
W BERMUDA  41048 0008            72 73  230/ 14/ 17 1022.3
WVE H/P(F/S)=  4/12 WND WVE H/P(F/S)=  3/ 5 SWL H/P/D(F/S/D)=  3/ 80/12

ATLANTIC S 41049 0044            74 76   70/ 16/ 19 1023.9R
WVE H/P(F/S)=  7/11 WND WVE H/P(F/S)=  5/ 7 SWL H/P/D(F/S/D)=  5/ 50/11

E BAHAMAS  41046 0021            77 78   80/ 16/ 17 1020.9R
WVE H/P(F/S)=  7/14 WND WVE H/P(F/S)=  5/ 7 SWL H/P/D(F/S/D)=  5/ 40/14

NE BAHAMAS 41047 NOT AVBL
120E CANVRL41010 0100            76 77  220/  4/  4 1021.0S
WVE H/P(F/S)=  4/14 WND WVE H/P(F/S)=  2/ 3 SWL H/P/D(F/S/D)=  3/ 70/14


END


USA.gov is the U.S. government's official web portal to all federal, state and local government web resources and services.